TimeCST,TemperatureF,Dew PointF,Humidity,Sea Level PressureIn,VisibilityMPH,Wind Direction,Wind SpeedMPH,Gust SpeedMPH,PrecipitationIn,Events,Conditions,WindDirDegrees,DateUTC
12:15 AM,42.8,26.6,53,30.18,10.0,NNW,13.8,18.4,N/A,,Clear,340,2014-03-06 06:15:00
12:35 AM,42.8,26.6,53,30.18,10.0,North,13.8,-,N/A,,Scattered Clouds,10,2014-03-06 06:35:00
12:55 AM,42.8,26.6,53,30.18,10.0,North,13.8,-,N/A,,Overcast,10,2014-03-06 06:55:00
1:15 AM,42.8,28.4,57,30.18,10.0,North,9.2,-,N/A,,Mostly Cloudy,350,2014-03-06 07:15:00
1:35 AM,41.0,28.4,61,30.18,10.0,North,9.2,-,N/A,,Scattered Clouds,350,2014-03-06 07:35:00
1:55 AM,41.0,30.2,65,30.18,10.0,NNW,10.4,-,N/A,,Mostly Cloudy,330,2014-03-06 07:55:00
2:15 AM,39.2,32.0,75,30.16,10.0,NNW,10.4,-,N/A,,Mostly Cloudy,330,2014-03-06 08:15:00
2:35 AM,39.2,32.0,75,30.16,10.0,NNW,10.4,-,N/A,,Overcast,330,2014-03-06 08:35:00
2:55 AM,39.2,33.8,81,30.15,10.0,NNW,10.4,-,N/A,,Overcast,330,2014-03-06 08:55:00
3:15 AM,39.2,33.8,81,30.15,10.0,NNW,10.4,-,N/A,,Overcast,340,2014-03-06 09:15:00
3:35 AM,39.2,33.8,81,30.15,10.0,NNW,9.2,-,N/A,,Overcast,330,2014-03-06 09:35:00
3:55 AM,39.2,33.8,81,30.15,10.0,NNW,11.5,-,N/A,,Overcast,330,2014-03-06 09:55:00
4:15 AM,39.2,33.8,81,30.15,10.0,NNW,11.5,-,N/A,,Overcast,340,2014-03-06 10:15:00
4:35 AM,39.2,33.8,81,30.15,10.0,NNW,9.2,-,N/A,,Overcast,330,2014-03-06 10:35:00
4:55 AM,37.4,33.8,87,30.15,10.0,NW,11.5,-,N/A,,Overcast,320,2014-03-06 10:55:00
5:15 AM,37.4,33.8,87,30.16,10.0,NW,10.4,-,N/A,,Overcast,320,2014-03-06 11:15:00
5:35 AM,37.4,33.8,87,30.16,10.0,NNW,10.4,-,N/A,,Overcast,340,2014-03-06 11:35:00
5:55 AM,37.4,33.8,87,30.16,10.0,NNW,8.1,-,N/A,,Overcast,340,2014-03-06 11:55:00
6:15 AM,37.4,33.8,87,30.17,10.0,NNW,9.2,-,N/A,,Overcast,330,2014-03-06 12:15:00
6:35 AM,37.4,33.8,87,30.18,10.0,NNW,10.4,-,N/A,,Overcast,330,2014-03-06 12:35:00
6:55 AM,37.4,33.8,87,30.18,10.0,NNW,9.2,-,N/A,,Overcast,330,2014-03-06 12:55:00
7:15 AM,37.4,33.8,87,30.19,10.0,NNW,8.1,-,N/A,,Overcast,330,2014-03-06 13:15:00
7:35 AM,37.4,33.8,87,30.20,10.0,NNW,11.5,-,N/A,,Overcast,340,2014-03-06 13:35:00
7:55 AM,37.4,33.8,87,30.20,10.0,NNW,10.4,-,N/A,,Overcast,330,2014-03-06 13:55:00
8:15 AM,37.4,33.8,87,30.22,10.0,NNW,13.8,-,N/A,,Overcast,340,2014-03-06 14:15:00
8:35 AM,37.4,33.8,87,30.22,9.0,NNW,12.7,-,N/A,,Overcast,340,2014-03-06 14:35:00
8:55 AM,37.4,33.8,87,30.23,8.0,NNW,12.7,-,N/A,,Overcast,330,2014-03-06 14:55:00
9:15 AM,39.2,33.8,81,30.24,8.0,NNW,13.8,-,N/A,,Overcast,340,2014-03-06 15:15:00
9:35 AM,39.2,33.8,81,30.24,8.0,NNW,13.8,-,N/A,,Overcast,340,2014-03-06 15:35:00
9:55 AM,41.0,35.6,81,30.23,9.0,NNW,13.8,20.7,N/A,,Mostly Cloudy,340,2014-03-06 15:55:00
10:15 AM,42.8,33.8,70,30.24,9.0,North,12.7,20.7,N/A,,Mostly Cloudy,360,2014-03-06 16:15:00
10:35 AM,44.6,35.6,71,30.23,10.0,North,12.7,20.7,N/A,,Partly Cloudy,350,2014-03-06 16:35:00
10:55 AM,46.4,35.6,66,30.22,10.0,North,15.0,18.4,N/A,,Clear,360,2014-03-06 16:55:00
11:15 AM,46.4,37.4,71,30.22,10.0,North,11.5,18.4,N/A,,Scattered Clouds,350,2014-03-06 17:15:00
11:35 AM,48.2,35.6,62,30.21,10.0,NW,6.9,-,N/A,,Partly Cloudy,320,2014-03-06 17:35:00
11:55 AM,48.2,35.6,62,30.20,10.0,NNE,8.1,-,N/A,,Clear,20,2014-03-06 17:55:00
12:15 PM,50.0,35.6,58,30.18,10.0,North,9.2,-,N/A,,Clear,360,2014-03-06 18:15:00
12:35 PM,51.8,35.6,54,30.18,10.0,NNW,10.4,-,N/A,,Clear,330,2014-03-06 18:35:00
12:55 PM,51.8,35.6,54,30.17,10.0,NNW,10.4,-,N/A,,Clear,340,2014-03-06 18:55:00
1:15 PM,53.6,35.6,51,30.15,10.0,NW,6.9,-,N/A,,Clear,320,2014-03-06 19:15:00
1:35 PM,51.8,35.6,54,30.14,10.0,WNW,4.6,-,N/A,,Clear,300,2014-03-06 19:35:00
1:55 PM,53.6,35.6,51,30.13,10.0,NW,4.6,-,N/A,,Clear,320,2014-03-06 19:55:00
2:15 PM,55.4,35.6,47,30.13,10.0,NW,8.1,-,N/A,,Clear,320,2014-03-06 20:15:00
2:35 PM,55.4,35.6,47,30.13,10.0,WNW,6.9,-,N/A,,Clear,290,2014-03-06 20:35:00
2:55 PM,55.4,33.8,44,30.12,10.0,North,4.6,-,N/A,,Clear,350,2014-03-06 20:55:00
3:15 PM,55.4,35.6,47,30.11,10.0,WNW,6.9,-,N/A,,Clear,300,2014-03-06 21:15:00
3:35 PM,57.2,35.6,44,30.11,10.0,NNW,9.2,-,N/A,,Clear,330,2014-03-06 21:35:00
3:55 PM,55.4,35.6,47,30.10,10.0,NW,3.5,-,N/A,,Clear,310,2014-03-06 21:55:00
4:15 PM,57.2,35.6,44,30.09,10.0,WNW,9.2,-,N/A,,Clear,300,2014-03-06 22:15:00
4:35 PM,55.4,33.8,44,30.09,10.0,WNW,10.4,-,N/A,,Clear,300,2014-03-06 22:35:00
4:55 PM,55.4,35.6,47,30.09,10.0,NW,5.8,-,N/A,,Clear,310,2014-03-06 22:55:00
5:15 PM,55.4,35.6,47,30.09,10.0,NW,5.8,-,N/A,,Clear,320,2014-03-06 23:15:00
5:35 PM,55.4,35.6,47,30.08,10.0,NW,8.1,-,N/A,,Clear,310,2014-03-06 23:35:00
5:55 PM,53.6,35.6,51,30.07,10.0,WNW,5.8,-,N/A,,Clear,300,2014-03-06 23:55:00
6:15 PM,51.8,35.6,54,30.07,10.0,NW,4.6,-,N/A,,Clear,320,2014-03-07 00:15:00
6:35 PM,50.0,35.6,58,30.07,10.0,NW,4.6,-,N/A,,Clear,310,2014-03-07 00:35:00
6:55 PM,48.2,35.6,62,30.07,10.0,NW,3.5,-,N/A,,Clear,310,2014-03-07 00:55:00
7:15 PM,48.2,35.6,62,30.07,10.0,NW,5.8,-,N/A,,Clear,310,2014-03-07 01:15:00
7:35 PM,48.2,35.6,62,30.07,10.0,NW,3.5,-,N/A,,Clear,310,2014-03-07 01:35:00
7:55 PM,46.4,35.6,66,30.07,10.0,WNW,3.5,-,N/A,,Clear,300,2014-03-07 01:55:00
8:15 PM,44.6,35.6,71,30.07,10.0,West,4.6,-,N/A,,Clear,280,2014-03-07 02:15:00
8:35 PM,44.6,35.6,71,30.07,10.0,Calm,Calm,-,N/A,,Clear,0,2014-03-07 02:35:00
8:55 PM,44.6,35.6,71,30.07,10.0,West,3.5,-,N/A,,Clear,280,2014-03-07 02:55:00
9:15 PM,42.8,33.8,70,30.08,10.0,West,3.5,-,N/A,,Clear,280,2014-03-07 03:15:00
9:35 PM,42.8,33.8,70,30.09,10.0,West,4.6,-,N/A,,Clear,280,2014-03-07 03:35:00
9:55 PM,42.8,33.8,70,30.10,10.0,West,5.8,-,N/A,,Clear,280,2014-03-07 03:55:00
10:15 PM,42.8,33.8,70,30.10,10.0,West,5.8,-,N/A,,Clear,270,2014-03-07 04:15:00
10:35 PM,41.0,33.8,76,30.10,10.0,West,4.6,-,N/A,,Clear,260,2014-03-07 04:35:00
10:55 PM,39.2,33.8,81,30.10,10.0,West,3.5,-,N/A,,Clear,280,2014-03-07 04:55:00
11:15 PM,39.2,33.8,81,30.09,10.0,West,3.5,-,N/A,,Clear,270,2014-03-07 05:15:00
11:35 PM,39.2,33.8,81,30.08,10.0,West,3.5,-,N/A,,Clear,280,2014-03-07 05:35:00
11:55 PM,39.2,33.8,81,30.07,10.0,Calm,Calm,-,N/A,,Clear,0,2014-03-07 05:55:00